Location: Songkhla
(7.2000°N, 100.6000°E)
Time: 17:47:27
(UTC+07:00)

N. Korean satellite - Visible Passes

Search period start: 20 January 2022 00:00
Search period end: 30 January 2022 00:00
Orbit: 446 x 491 km, 97.3° (Epoch: 19 January)

Date Brightness Start Highest point End Pass type
(mag) Time Alt. Az. Time Alt. Az. Time Alt. Az.
20 Jan 7.6 04:56:33 10° NNE 05:00:01 45° E 05:03:29 10° S visible
21 Jan 9.6 04:28:46 10° ENE 04:30:58 15° E 04:33:08 10° SE visible
21 Jan 8.3 06:01:53 10° NW 06:03:49 14° WNW 06:05:45 10° WSW visible
22 Jan 6.9 05:31:24 10° N 05:34:48 40° WNW 05:38:12 10° SSW visible
23 Jan 7.1 05:02:11 10° NNE 05:05:43 58° E 05:09:15 10° S visible
24 Jan 9.3 04:34:01 10° NE 04:36:36 19° E 04:39:10 10° SE visible
24 Jan 8.5 06:08:18 10° WNW 06:09:27 11° WNW 06:10:34 10° W visible
25 Jan 7.2 05:37:08 10° NNW 05:40:22 32° WNW 05:43:36 10° SW visible
26 Jan 6.7 05:07:39 10° NNE 05:11:15 74° E 05:14:49 10° S visible
27 Jan 9.0 04:39:11 10° NE 04:42:04 23° E 04:44:55 10° SSE visible
28 Jan 7.5 05:42:44 10° NNW 05:45:46 26° WNW 05:48:48 10° SW visible
29 Jan 6.4 05:13:01 10° N 05:16:36 87° W 05:20:09 10° SSW visible
